M I D A S
Marine Information and Data Acquisition System
Tripno 2298 of the Zeeleeuw from 2012-04-27 08:13:43 to 2012-04-27 12:59:57
Back to CruiseResearch ActivitiesStationsMapUnderway DataData graphs

EquipmentUnitsComments
TimeDGPSUTC
LatitudeDGPSDM.mWGS84
LongitudeDGPSDM.mWGS84
SpeedMeteo Stationm/sRelative wind speed
DirectionMeteo StationdegRelative wind direction
TemperatureMeteo Stationdeg CelciusAir temperature
PressureMeteo StationPaAtmospheric pressure
HumidityMeteo Station%Relative humidity
Missing or incorrect values are displayed as -999
Metereological data collected by the RV Zeeleeuw from 2012-04-27 08:11:11 to 2012-04-27 15:30:21
                                                                                    Next 1000 lines
Time Latitude Longitude Speed Direction Temperature Pressure Humidity
2012-04-27 08:11:21 51°13.636 2°56.014 5.5 12 11.4 101210 45
2012-04-27 08:11:26 51°13.637 2°56.01 5.4 16 11.4 101210 45
2012-04-27 08:11:31 51°13.639 2°56.005 4.6 19 11.4 101210 45
2012-04-27 08:11:37 51°13.64 2°55.998 5.3 21 11.4 101210 46
2012-04-27 08:11:41 51°13.642 2°55.992 3.8 3 11.4 101210 46
2012-04-27 08:11:46 51°13.644 2°55.985 5 15 11.4 101210 45
2012-04-27 08:11:51 51°13.646 2°55.976 4.1 9 11.4 101210 45
2012-04-27 08:11:57 51°13.648 2°55.966 5.6 17 11.4 101210 45
2012-04-27 08:12:01 51°13.65 2°55.958 3.9 25 11.4 101210 45
2012-04-27 08:12:06 51°13.653 2°55.949 5.2 37 11.4 101210 46
2012-04-27 08:12:11 51°13.655 2°55.938 4.5 30 11.4 101210 46
2012-04-27 08:12:16 51°13.658 2°55.928 5.5 30 11.4 101210 45
2012-04-27 08:12:21 51°13.66 2°55.918 5.8 26 11.4 101210 45
2012-04-27 08:12:26 51°13.662 2°55.908 4.7 25 11.4 101210 44
2012-04-27 08:12:31 51°13.664 2°55.898 5.2 15 11.4 101210 44
2012-04-27 08:12:36 51°13.667 2°55.888 4.3 25 11.4 101210 46
2012-04-27 08:12:41 51°13.669 2°55.878 3.1 21 11.4 101210 46
2012-04-27 08:12:46 51°13.671 2°55.868 2.5 28 11.4 101210 46
2012-04-27 08:12:51 51°13.673 2°55.859 2.5 31 11.4 101210 46
2012-04-27 08:12:56 51°13.675 2°55.849 4 30 11.4 101210 45
2012-04-27 08:13:01 51°13.677 2°55.84 5 37 11.4 101210 45
2012-04-27 08:13:06 51°13.679 2°55.832 2.9 27 11.4 101210 47
2012-04-27 08:13:11 51°13.681 2°55.823 4.3 27 11.4 101210 47
2012-04-27 08:13:16 51°13.682 2°55.814 5.3 27 11.4 101210 47
2012-04-27 08:13:21 51°13.684 2°55.806 3.7 33 11.4 101210 47
2012-04-27 08:13:26 51°13.686 2°55.797 5.2 29 11.5 101220 46
2012-04-27 08:13:31 51°13.687 2°55.79 4.3 33 11.5 101220 46
2012-04-27 08:13:36 51°13.688 2°55.782 6 34 11.5 101210 46
2012-04-27 08:13:41 51°13.689 2°55.774 5.3 34 11.5 101210 46
2012-04-27 08:13:46 51°13.69 2°55.767 6.6 35 11.5 101210 45
2012-04-27 08:13:51 51°13.691 2°55.761 4.6 18 11.5 101210 45
2012-04-27 08:13:56 51°13.692 2°55.756 6.6 28 11.5 101200 46
2012-04-27 08:14:01 51°13.693 2°55.754 4.6 40 11.5 101200 46
2012-04-27 08:14:06 51°13.694 2°55.754 4.6 36 11.5 101200 45
2012-04-27 08:14:11 51°13.695 2°55.754 3.9 38 11.5 101200 45
2012-04-27 08:14:16 51°13.696 2°55.755 4.2 34 11.5 101200 46
2012-04-27 08:14:21 51°13.697 2°55.756 4.3 43 11.5 101200 46
2012-04-27 08:14:26 51°13.699 2°55.758 4.2 37 11.5 101200 46
2012-04-27 08:14:31 51°13.7 2°55.759 5.9 39 11.5 101200 46
2012-04-27 08:14:36 51°13.703 2°55.76 3.1 27 11.5 101210 47
2012-04-27 08:14:41 51°13.704 2°55.761 2.2 58 11.5 101210 47
2012-04-27 08:14:46 51°13.706 2°55.761 4.7 27 11.5 101210 47
2012-04-27 08:14:51 51°13.706 2°55.761 3.6 81 11.5 101210 47
2012-04-27 08:14:56 51°13.706 2°55.76 3.9 27 11.5 101210 46
2012-04-27 08:15:01 51°13.705 2°55.758 4.7 76 11.5 101210 46
2012-04-27 08:15:06 51°13.703 2°55.757 6.7 19 11.5 101210 44
2012-04-27 08:15:11 51°13.7 2°55.756 6.8 54 11.5 101210 44
2012-04-27 08:15:16 51°13.698 2°55.755 5.9 21 11.6 101210 45
2012-04-27 08:15:21 51°13.695 2°55.753 5.3 81 11.6 101210 45
2012-04-27 08:15:26 51°13.693 2°55.752 4.1 23 11.6 101220 45
2012-04-27 08:15:31 51°13.693 2°55.752 4.5 57 11.6 101220 45
2012-04-27 08:15:36 51°13.694 2°55.751 4.9 21 11.6 101210 45
2012-04-27 08:15:41 51°13.696 2°55.75 3.4 80 11.6 101210 45
2012-04-27 08:15:46 51°13.698 2°55.748 3.5 20 11.6 101210 46
2012-04-27 08:15:51 51°13.701 2°55.746 4.1 53 11.6 101210 46
2012-04-27 08:15:56 51°13.705 2°55.743 3.2 29 11.6 101220 46
2012-04-27 08:16:01 51°13.71 2°55.739 1.8 55 11.6 101220 46
2012-04-27 08:16:06 51°13.715 2°55.735 2.3 264 11.6 101220 47
2012-04-27 08:16:11 51°13.721 2°55.73 3.3 282 11.6 101220 47
2012-04-27 08:16:17 51°13.728 2°55.723 2.6 258 11.6 101220 45
2012-04-27 08:16:21 51°13.734 2°55.718 2.8 62 11.6 101220 45
2012-04-27 08:16:26 51°13.741 2°55.712 1.9 30 11.6 101210 46
2012-04-27 08:16:31 51°13.749 2°55.705 2.9 75 11.6 101210 46
2012-04-27 08:16:36 51°13.757 2°55.698 2.8 28 11.6 101210 45
2012-04-27 08:16:41 51°13.765 2°55.691 2.5 308 11.6 101210 45
2012-04-27 08:16:46 51°13.773 2°55.684 2.8 261 11.6 101210 47
2012-04-27 08:16:51 51°13.782 2°55.676 2.3 285 11.6 101210 47
2012-04-27 08:16:56 51°13.792 2°55.669 2 22 11.6 101210 45
2012-04-27 08:17:01 51°13.801 2°55.662 2.4 307 11.6 101210 45
2012-04-27 08:17:06 51°13.811 2°55.655 1.8 263 11.7 101210 46
2012-04-27 08:17:11 51°13.82 2°55.647 1.8 286 11.7 101210 46
2012-04-27 08:17:16 51°13.83 2°55.64 4.2 255 11.7 101220 46
2012-04-27 08:17:21 51°13.84 2°55.634 3.3 278 11.7 101220 46
2012-04-27 08:17:26 51°13.849 2°55.627 1.6 264 11.7 101210 46
2012-04-27 08:17:31 51°13.859 2°55.62 2.5 282 11.7 101210 46
2012-04-27 08:17:36 51°13.868 2°55.614 2.5 258 11.7 101220 47
2012-04-27 08:17:41 51°13.877 2°55.608 1.9 283 11.7 101220 47
2012-04-27 08:17:46 51°13.887 2°55.602 2.2 263 11.7 101210 45
2012-04-27 08:17:51 51°13.896 2°55.596 1.6 55 11.7 101210 45
2012-04-27 08:17:56 51°13.905 2°55.59 2.2 27 11.8 101210 47
2012-04-27 08:18:01 51°13.914 2°55.583 2.7 281 11.8 101210 47
2012-04-27 08:18:06 51°13.924 2°55.577 2.4 22 11.8 101210 46
2012-04-27 08:18:11 51°13.933 2°55.571 2.8 304 11.8 101210 46
2012-04-27 08:18:16 51°13.943 2°55.564 2.3 256 11.8 101210 47
2012-04-27 08:18:21 51°13.952 2°55.558 3 306 11.8 101210 47
2012-04-27 08:18:26 51°13.962 2°55.552 2.9 259 11.8 101210 46
2012-04-27 08:18:31 51°13.972 2°55.545 2.9 278 11.8 101210 46
2012-04-27 08:18:37 51°13.984 2°55.538 5.8 257 11.9 101220 47
2012-04-27 08:18:41 51°13.992 2°55.532 5.7 301 11.9 101220 47
2012-04-27 08:18:46 51°14.002 2°55.526 7 251 11.9 101210 45
2012-04-27 08:18:51 51°14.012 2°55.519 7 278 11.9 101210 45
2012-04-27 08:18:56 51°14.022 2°55.513 3.5 245 11.9 101210 46
2012-04-27 08:19:01 51°14.031 2°55.506 2.2 310 11.9 101210 46
2012-04-27 08:19:06 51°14.041 2°55.499 3.7 244 11.9 101220 45
2012-04-27 08:19:11 51°14.051 2°55.492 3.8 285 11.9 101220 45
2012-04-27 08:19:16 51°14.061 2°55.486 3.3 20 11.9 101220 46
2012-04-27 08:19:21 51°14.07 2°55.479 5.4 279 11.9 101220 46
2012-04-27 08:19:26 51°14.08 2°55.472 3.6 253 11.9 101220 46
2012-04-27 08:19:31 51°14.089 2°55.464 5 303 11.9 101220 46
2012-04-27 08:19:36 51°14.099 2°55.457 3.5 251 11.9 101220 45
2012-04-27 08:19:41 51°14.109 2°55.45 3.1 279 11.9 101220 45
2012-04-27 08:19:46 51°14.119 2°55.442 5.2 26 12 101210 46
2012-04-27 08:19:51 51°14.129 2°55.434 3.9 302 12 101210 46
2012-04-27 08:19:56 51°14.14 2°55.426 3.9 258 12 101210 46
2012-04-27 08:20:01 51°14.15 2°55.418 2.8 286 12 101210 46
2012-04-27 08:20:06 51°14.161 2°55.409 4.8 25 12 101220 45
2012-04-27 08:20:11 51°14.172 2°55.4 4.3 306 12 101220 45
2012-04-27 08:20:16 51°14.184 2°55.391 2.9 21 12 101220 45
2012-04-27 08:20:21 51°14.196 2°55.38 1.8 285 12 101220 45
2012-04-27 08:20:26 51°14.208 2°55.371 2.8 21 12 101220 45
2012-04-27 08:20:31 51°14.22 2°55.359 3.8 285 12 101220 45
2012-04-27 08:20:36 51°14.232 2°55.348 4.3 320 12 101210 47
2012-04-27 08:20:41 51°14.245 2°55.335 7 310 12 101210 47
2012-04-27 08:20:46 51°14.258 2°55.323 8 24 12 101210 46
2012-04-27 08:20:51 51°14.271 2°55.31 6 284 12 101210 46
2012-04-27 08:20:57 51°14.287 2°55.295 4.9 20 12.1 101200 46
2012-04-27 08:21:01 51°14.298 2°55.284 6.5 306 12.1 101200 46
2012-04-27 08:21:06 51°14.312 2°55.271 7 20 12.1 101200 45
2012-04-27 08:21:11 51°14.326 2°55.257 5.5 286 12.1 101200 45
2012-04-27 08:21:16 51°14.341 2°55.244 7.2 25 12.1 101200 45
2012-04-27 08:21:21 51°14.355 2°55.229 6.4 302 12.1 101200 45
2012-04-27 08:21:26 51°14.369 2°55.216 6 24 12.1 101200 45
2012-04-27 08:21:31 51°14.384 2°55.201 6.1 286 12.1 101200 45
2012-04-27 08:21:36 51°14.399 2°55.188 7.4 21 12.1 101210 45
2012-04-27 08:21:41 51°14.413 2°55.174 6.3 279 12.1 101210 45
2012-04-27 08:21:46 51°14.428 2°55.16 5.5 23 12.1 101200 46
2012-04-27 08:21:51 51°14.442 2°55.146 6.8 307 12.1 101200 46
2012-04-27 08:21:56 51°14.457 2°55.132 8.1 251 12.1 101200 46
2012-04-27 08:22:01 51°14.471 2°55.118 6.9 278 12.1 101200 46
2012-04-27 08:22:05 51°14.483 2°55.107 7.4 251 12.1 101200 45
2012-04-27 08:22:11 51°14.501 2°55.09 7.4 306 12.1 101200 45
2012-04-27 08:22:16 51°14.516 2°55.077 7.3 254 12.1 101220 45
2012-04-27 08:22:21 51°14.53 2°55.063 6.5 279 12.1 101220 45
2012-04-27 08:22:25 51°14.542 2°55.051 7.4 255 12.1 101210 45
2012-04-27 08:22:30 51°14.556 2°55.035 5.7 303 12.1 101210 45
2012-04-27 08:22:35 51°14.569 2°55.018 6.7 25 12.1 101210 45
2012-04-27 08:22:40 51°14.582 2°54.999 7.5 285 12.1 101210 45
2012-04-27 08:22:45 51°14.595 2°54.981 7.3 25 12 101200 46
2012-04-27 08:22:49 51°14.605 2°54.965 7.2 280 12 101200 46
2012-04-27 08:22:54 51°14.616 2°54.944 11 25 12.1 101200 45
2012-04-27 08:22:59 51°14.626 2°54.922 9.1 281 12.1 101200 45
2012-04-27 08:23:04 51°14.636 2°54.899 12.2 243 12 101210 44
2012-04-27 08:23:09 51°14.644 2°54.875 8.6 284 12 101210 44
2012-04-27 08:23:13 51°14.651 2°54.855 11.8 20 12.1 101210 46
2012-04-27 08:23:19 51°14.659 2°54.825 10.2 282 12.1 101210 46
2012-04-27 08:23:23 51°14.664 2°54.804 9.9 21 12 101180 46
2012-04-27 08:23:28 51°14.669 2°54.778 10.9 285 12 101180 46
2012-04-27 08:23:33 51°14.673 2°54.751 10.4 24 12.1 101200 46
2012-04-27 08:23:37 51°14.674 2°54.73 12.6 283 12.1 101200 46
2012-04-27 08:23:43 51°14.675 2°54.698 10 316 12 101200 46
2012-04-27 08:23:48 51°14.673 2°54.671 12.3 286 12 101200 46
2012-04-27 08:23:53 51°14.671 2°54.644 13 319 12 101180 45
2012-04-27 08:23:57 51°14.667 2°54.623 14.2 281 12 101180 45
2012-04-27 08:24:03 51°14.662 2°54.593 17.6 320 12 101160 45
2012-04-27 08:24:08 51°14.655 2°54.568 13.3 285 12 101160 45
2012-04-27 08:24:13 51°14.648 2°54.543 7.4 323 12 101170 45
2012-04-27 08:24:17 51°14.642 2°54.524 13.9 282 12 101170 45
2012-04-27 08:24:22 51°14.634 2°54.501 15.1 326 11.9 101180 45
2012-04-27 08:24:28 51°14.622 2°54.475 16.4 283 11.9 101180 45
2012-04-27 08:24:33 51°14.611 2°54.453 13.8 322 11.9 101160 45
2012-04-27 08:24:37 51°14.603 2°54.437 11.8 282 11.9 101160 45
2012-04-27 08:24:43 51°14.589 2°54.412 11.2 329 11.9 101160 46
2012-04-27 08:24:48 51°14.577 2°54.392 15.7 325 11.9 101160 46
2012-04-27 08:24:53 51°14.566 2°54.371 13.5 326 11.9 101160 45
2012-04-27 08:24:57 51°14.557 2°54.354 6.6 280 11.9 101160 45
2012-04-27 08:25:03 51°14.543 2°54.329 13.9 328 11.9 101180 45
2012-04-27 08:25:08 51°14.531 2°54.309 16.1 280 11.9 101180 45
2012-04-27 08:25:13 51°14.52 2°54.289 16.2 327 11.9 101180 45
2012-04-27 08:25:17 51°14.51 2°54.273 15.6 303 11.9 101180 45
2012-04-27 08:25:23 51°14.496 2°54.248 12.7 327 11.8 101170 46
2012-04-27 08:25:28 51°14.485 2°54.227 12.6 283 11.8 101170 46
2012-04-27 08:25:33 51°14.474 2°54.205 14.2 324 11.8 101170 46
2012-04-27 08:25:38 51°14.463 2°54.184 14.7 278 11.8 101170 46
2012-04-27 08:25:43 51°14.451 2°54.163 16.3 326 11.8 101160 45
2012-04-27 08:25:48 51°14.44 2°54.142 12.6 279 11.8 101160 45
2012-04-27 08:25:53 51°14.428 2°54.122 13.6 327 11.7 101170 45
2012-04-27 08:25:57 51°14.418 2°54.106 14.1 285 11.7 101170 45
2012-04-27 08:26:03 51°14.403 2°54.083 16 327 11.7 101160 45
2012-04-27 08:26:08 51°14.391 2°54.062 6.8 328 11.7 101160 45
2012-04-27 08:26:13 51°14.379 2°54.042 12.4 326 11.7 101180 46
2012-04-27 08:26:17 51°14.37 2°54.026 13.5 283 11.7 101180 46
2012-04-27 08:26:23 51°14.356 2°54.001 16.2 327 11.7 101170 46
2012-04-27 08:26:28 51°14.344 2°53.98 15.5 280 11.7 101170 46
2012-04-27 08:26:33 51°14.332 2°53.961 15.6 328 11.6 101170 46
2012-04-27 08:26:37 51°14.322 2°53.944 16 281 11.6 101170 46
2012-04-27 08:26:43 51°14.307 2°53.921 12.2 326 11.6 101170 45
2012-04-27 08:26:48 51°14.295 2°53.901 6.5 279 11.6 101170 45
2012-04-27 08:26:53 51°14.283 2°53.88 6.4 326 11.6 101160 46
2012-04-27 08:26:57 51°14.274 2°53.863 6.1 280 11.6 101160 46
2012-04-27 08:27:03 51°14.26 2°53.838 14.3 325 11.6 101170 46
2012-04-27 08:27:08 51°14.248 2°53.818 13.8 280 11.6 101170 46
2012-04-27 08:27:13 51°14.236 2°53.797 13.4 325 11.6 101180 46
2012-04-27 08:27:18 51°14.225 2°53.776 14.6 285 11.6 101180 46
2012-04-27 08:27:23 51°14.213 2°53.755 15.6 326 11.6 101180 46
2012-04-27 08:27:28 51°14.201 2°53.734 13.3 284 11.6 101180 46
2012-04-27 08:27:33 51°14.19 2°53.714 15.4 324 11.5 101180 46
2012-04-27 08:27:38 51°14.178 2°53.693 13 324 11.5 101180 46
2012-04-27 08:27:43 51°14.166 2°53.673 14.8 326 11.5 101180 46
2012-04-27 08:27:48 51°14.154 2°53.652 18.4 284 11.5 101180 46
2012-04-27 08:27:53 51°14.143 2°53.631 14.4 326 11.6 101170 46
2012-04-27 08:27:58 51°14.131 2°53.611 15.2 284 11.6 101170 46
2012-04-27 08:28:02 51°14.122 2°53.595 13.8 325 11.6 101170 46
2012-04-27 08:28:08 51°14.108 2°53.571 12.8 279 11.6 101170 46
2012-04-27 08:28:13 51°14.098 2°53.553 16.5 323 11.6 101180 46
2012-04-27 08:28:18 51°14.087 2°53.535 15.7 279 11.6 101180 46
2012-04-27 08:28:23 51°14.077 2°53.519 12.3 322 11.6 101180 45
2012-04-27 08:28:28 51°14.068 2°53.503 11.5 326 11.6 101180 45
2012-04-27 08:28:33 51°14.059 2°53.489 10.9 325 11.5 101180 46
2012-04-27 08:28:37 51°14.052 2°53.478 11.2 280 11.5 101180 46
2012-04-27 08:28:43 51°14.041 2°53.463 9.6 328 11.5 101170 45
2012-04-27 08:28:48 51°14.033 2°53.451 11.5 279 11.5 101170 45
2012-04-27 08:28:53 51°14.025 2°53.439 13 325 11.5 101180 45
2012-04-27 08:28:57 51°14.019 2°53.43 10.8 284 11.5 101180 45
2012-04-27 08:29:03 51°14.01 2°53.417 10.1 324 11.5 101190 46
2012-04-27 08:29:08 51°14.003 2°53.407 10.5 281 11.5 101190 46
2012-04-27 08:29:13 51°13.996 2°53.397 12 323 11.5 101190 46
2012-04-27 08:29:18 51°13.989 2°53.387 11.2 280 11.5 101190 46
2012-04-27 08:29:22 51°13.983 2°53.379 11.4 327 11.5 101190 46
2012-04-27 08:29:28 51°13.975 2°53.367 10.9 282 11.5 101190 46
2012-04-27 08:29:33 51°13.969 2°53.358 5.8 325 11.6 101200 46
2012-04-27 08:29:38 51°13.963 2°53.348 11.1 284 11.6 101200 46
2012-04-27 08:29:42 51°13.958 2°53.34 9.1 323 11.6 101200 45
2012-04-27 08:29:48 51°13.952 2°53.328 8.4 282 11.6 101200 45
2012-04-27 08:29:53 51°13.946 2°53.317 12.3 322 11.5 101190 45
2012-04-27 08:29:57 51°13.942 2°53.309 11.6 285 11.5 101190 45
2012-04-27 08:30:03 51°13.936 2°53.297 10.3 322 11.6 101190 45
2012-04-27 08:30:08 51°13.931 2°53.286 9.8 283 11.6 101190 45
2012-04-27 08:30:13 51°13.927 2°53.276 10.9 318 11.5 101200 45
2012-04-27 08:30:17 51°13.923 2°53.268 12.8 309 11.5 101200 45
2012-04-27 08:30:23 51°13.918 2°53.255 14.5 317 11.6 101190 46
2012-04-27 08:30:28 51°13.913 2°53.245 13 281 11.6 101190 46
2012-04-27 08:30:33 51°13.909 2°53.234 10.6 319 11.6 101200 46
2012-04-27 08:30:38 51°13.905 2°53.224 9.9 284 11.6 101200 46
2012-04-27 08:30:43 51°13.901 2°53.214 11 319 11.6 101190 46
2012-04-27 08:30:48 51°13.898 2°53.205 10.5 282 11.6 101190 46
2012-04-27 08:30:53 51°13.894 2°53.196 9.9 322 11.6 101190 45
2012-04-27 08:30:57 51°13.891 2°53.189 7.8 282 11.6 101190 45
2012-04-27 08:31:03 51°13.886 2°53.178 9.7 322 11.5 101190 44
2012-04-27 08:31:08 51°13.883 2°53.17 9.4 306 11.5 101190 44
2012-04-27 08:31:13 51°13.879 2°53.162 7.4 323 11.5 101190 45
2012-04-27 08:31:17 51°13.876 2°53.155 8.3 283 11.5 101190 45
2012-04-27 08:31:23 51°13.872 2°53.146 10.9 323 11.5 101200 45
2012-04-27 08:31:28 51°13.869 2°53.139 8 279 11.5 101200 45
2012-04-27 08:31:33 51°13.865 2°53.132 7.9 319 11.5 101210 45
2012-04-27 08:31:37 51°13.862 2°53.126 8.9 328 11.5 101210 45
2012-04-27 08:31:43 51°13.858 2°53.118 7.4 320 11.5 101200 46
2012-04-27 08:31:48 51°13.855 2°53.111 9 279 11.5 101200 46
2012-04-27 08:31:53 51°13.851 2°53.104 9.8 322 11.5 101200 46
2012-04-27 08:31:57 51°13.848 2°53.099 8.7 282 11.5 101200 46
2012-04-27 08:32:02 51°13.845 2°53.092 10.1 325 11.6 101200 46
2012-04-27 08:32:08 51°13.841 2°53.084 11.4 284 11.6 101200 46
2012-04-27 08:32:13 51°13.838 2°53.078 11.1 324 11.5 101200 47
2012-04-27 08:32:18 51°13.834 2°53.071 8.9 283 11.5 101200 47
2012-04-27 08:32:23 51°13.831 2°53.066 10.5 324 11.5 101190 46
2012-04-27 08:32:28 51°13.828 2°53.059 10.4 278 11.5 101190 46
2012-04-27 08:32:33 51°13.825 2°53.054 10 325 11.5 101190 46
2012-04-27 08:32:38 51°13.822 2°53.048 7.3 277 11.5 101190 46
2012-04-27 08:32:43 51°13.819 2°53.043 9.9 327 11.5 101190 45
2012-04-27 08:32:48 51°13.816 2°53.038 9.7 285 11.5 101190 45
2012-04-27 08:32:53 51°13.814 2°53.033 8.6 327 11.5 101190 46
2012-04-27 08:32:57 51°13.812 2°53.029 8.7 284 11.5 101190 46
2012-04-27 08:33:03 51°13.809 2°53.023 8.5 323 11.5 101200 46
2012-04-27 08:33:08 51°13.806 2°53.019 9.6 280 11.5 101200 46
2012-04-27 08:33:13 51°13.804 2°53.014 8.2 323 11.4 101200 45
2012-04-27 08:33:17 51°13.802 2°53.011 10.2 284 11.4 101200 45
2012-04-27 08:33:22 51°13.8 2°53.006 9 322 11.5 101200 45
2012-04-27 08:33:28 51°13.797 2°53.001 9.6 285 11.5 101200 45
2012-04-27 08:33:33 51°13.795 2°52.997 7.6 324 11.5 101200 45
2012-04-27 08:33:37 51°13.793 2°52.994 7 279 11.5 101200 45
2012-04-27 08:33:42 51°13.791 2°52.99 6.7 322 11.5 101200 44
2012-04-27 08:33:48 51°13.788 2°52.985 8.5 304 11.5 101200 44
2012-04-27 08:33:53 51°13.786 2°52.981 7.1 322 11.5 101200 45
2012-04-27 08:33:58 51°13.784 2°52.977 8.3 280 11.5 101200 45
2012-04-27 08:34:02 51°13.783 2°52.974 8.3 321 11.5 101200 46
2012-04-27 08:34:08 51°13.781 2°52.97 7.5 281 11.5 101200 46
2012-04-27 08:34:13 51°13.779 2°52.966 10.2 317 11.5 101210 46
2012-04-27 08:34:18 51°13.777 2°52.962 8 282 11.5 101210 46
2012-04-27 08:34:23 51°13.776 2°52.958 7.9 325 11.5 101210 46
2012-04-27 08:34:28 51°13.774 2°52.954 7.1 280 11.5 101210 46
2012-04-27 08:34:33 51°13.773 2°52.95 7.4 323 11.5 101210 45
2012-04-27 08:34:37 51°13.772 2°52.947 10.3 307 11.5 101210 45
2012-04-27 08:34:43 51°13.77 2°52.943 8.9 27 11.6 101200 46
2012-04-27 08:34:48 51°13.769 2°52.939 9.3 278 11.6 101200 46
2012-04-27 08:34:53 51°13.768 2°52.936 8.3 26 11.5 101210 45
2012-04-27 08:34:58 51°13.767 2°52.932 9 285 11.5 101210 45
2012-04-27 08:35:03 51°13.766 2°52.929 7.8 24 11.6 101200 47
2012-04-27 08:35:08 51°13.764 2°52.925 8 281 11.6 101200 47
2012-04-27 08:35:13 51°13.764 2°52.921 7.4 23 11.6 101200 46
2012-04-27 08:35:18 51°13.762 2°52.918 8.5 279 11.6 101200 46
2012-04-27 08:35:23 51°13.762 2°52.914 10.3 21 11.6 101210 46
2012-04-27 08:35:28 51°13.761 2°52.911 8 310 11.6 101210 46
2012-04-27 08:35:33 51°13.76 2°52.907 6.4 317 11.6 101210 46
2012-04-27 08:35:37 51°13.759 2°52.905 6.9 282 11.6 101210 46
2012-04-27 08:35:43 51°13.758 2°52.9 7.7 316 11.6 101220 47
2012-04-27 08:35:48 51°13.757 2°52.897 6.3 279 11.6 101220 47
2012-04-27 08:35:53 51°13.757 2°52.893 7.8 319 11.6 101200 45
2012-04-27 08:35:57 51°13.756 2°52.891 7.1 284 11.6 101200 45
2012-04-27 08:36:03 51°13.755 2°52.887 8.3 21 11.6 101210 45
2012-04-27 08:36:08 51°13.754 2°52.883 8.3 -999 11.6 101210 45
2012-04-27 08:36:13 51°13.753 2°52.88 8.4 316 11.6 101210 47
2012-04-27 08:36:17 51°13.752 2°52.878 8.4 285 11.6 101210 47
2012-04-27 08:36:23 51°13.752 2°52.874 10.2 317 11.6 101210 44
2012-04-27 08:36:28 51°13.751 2°52.871 10.5 284 11.6 101210 44
2012-04-27 08:36:33 51°13.751 2°52.868 8.4 316 11.6 101210 46
2012-04-27 08:36:38 51°13.75 2°52.865 9.5 281 11.6 101210 46
2012-04-27 08:36:43 51°13.749 2°52.862 9.1 28 11.6 101210 45
2012-04-27 08:36:48 51°13.749 2°52.859 7.3 278 11.6 101210 45
2012-04-27 08:36:53 51°13.748 2°52.855 9.7 21 11.6 101200 46
2012-04-27 08:36:57 51°13.748 2°52.853 10.4 310 11.6 101200 46
2012-04-27 08:37:03 51°13.747 2°52.848 10.2 20 11.6 101210 45
2012-04-27 08:37:08 51°13.746 2°52.844 8.1 -999 11.6 101210 45
2012-04-27 08:37:13 51°13.746 2°52.839 8.9 24 11.5 101210 45
2012-04-27 08:37:17 51°13.745 2°52.835 8.6 285 11.5 101210 45
2012-04-27 08:37:23 51°13.744 2°52.829 7.4 26 11.5 101210 46
2012-04-27 08:37:28 51°13.744 2°52.823 7.4 282 11.5 101210 46
2012-04-27 08:37:33 51°13.744 2°52.817 8.4 26 11.5 101210 46
2012-04-27 08:37:37 51°13.744 2°52.812 9 283 11.5 101210 46
2012-04-27 08:37:43 51°13.744 2°52.804 9.6 21 11.5 101210 45
2012-04-27 08:37:48 51°13.744 2°52.798 9.9 308 11.5 101210 45
2012-04-27 08:37:53 51°13.745 2°52.791 7.4 19 11.5 101210 46
2012-04-27 08:37:57 51°13.746 2°52.786 7.6 280 11.5 101210 46
2012-04-27 08:38:02 51°13.747 2°52.779 9 20 11.5 101220 46
2012-04-27 08:38:08 51°13.749 2°52.772 8.2 309 11.5 101220 46
2012-04-27 08:38:13 51°13.751 2°52.765 10.3 254 11.5 101220 46
2012-04-27 08:38:17 51°13.753 2°52.76 8.8 281 11.5 101220 46
2012-04-27 08:38:23 51°13.756 2°52.752 10.3 256 11.6 101220 45
2012-04-27 08:38:28 51°13.759 2°52.747 11.2 284 11.6 101220 45
2012-04-27 08:38:33 51°13.762 2°52.742 9.8 261 11.6 101220 46
2012-04-27 08:38:37 51°13.765 2°52.738 8.9 284 11.6 101220 46
2012-04-27 08:38:43 51°13.769 2°52.732 5.9 265 11.6 101210 47
2012-04-27 08:38:48 51°13.773 2°52.728 5.6 284 11.6 101210 47
2012-04-27 08:38:53 51°13.777 2°52.724 6.8 270 11.6 101220 45
2012-04-27 08:38:58 51°13.781 2°52.721 7.8 79 11.6 101220 45
2012-04-27 08:39:02 51°13.785 2°52.718 5.2 264 11.6 101220 45
2012-04-27 08:39:08 51°13.79 2°52.714 6.3 -999 11.6 101220 45
2012-04-27 08:39:13 51°13.794 2°52.712 7.2 24 11.6 101220 46
2012-04-27 08:39:18 51°13.799 2°52.708 7 280 11.6 101220 46
2012-04-27 08:39:23 51°13.804 2°52.707 5 21 11.6 101220 46
2012-04-27 08:39:28 51°13.809 2°52.705 7 79 11.6 101220 46
2012-04-27 08:39:33 51°13.814 2°52.703 6.6 24 11.6 101230 45
2012-04-27 08:39:37 51°13.818 2°52.701 6.5 52 11.6 101230 45
2012-04-27 08:39:43 51°13.824 2°52.699 5.6 267 11.6 101230 45
2012-04-27 08:39:48 51°13.828 2°52.696 5.6 284 11.6 101230 45
2012-04-27 08:39:53 51°13.834 2°52.692 4.8 265 11.6 101240 47
2012-04-27 08:39:57 51°13.838 2°52.688 8.1 280 11.6 101240 47
2012-04-27 08:40:03 51°13.844 2°52.681 7.9 256 11.6 101230 47
2012-04-27 08:40:08 51°13.848 2°52.674 9.2 -999 11.6 101230 47
2012-04-27 08:40:13 51°13.852 2°52.665 8.8 251 11.6 101230 45
2012-04-27 08:40:18 51°13.855 2°52.655 9.2 284 11.6 101230 45
2012-04-27 08:40:22 51°13.856 2°52.646 8.7 23 11.6 101220 45
2012-04-27 08:40:28 51°13.858 2°52.633 9.8 305 11.6 101220 45
2012-04-27 08:40:33 51°13.859 2°52.622 10.3 24 11.6 101220 46
2012-04-27 08:40:38 51°13.859 2°52.61 9.5 285 11.6 101220 46
2012-04-27 08:40:42 51°13.859 2°52.601 12.5 25 11.6 101220 47
2012-04-27 08:40:48 51°13.857 2°52.588 11.4 278 11.6 101220 47
2012-04-27 08:40:53 51°13.855 2°52.577 9.1 20 11.6 101220 46
2012-04-27 08:40:57 51°13.853 2°52.569 10.3 281 11.6 101220 46
2012-04-27 08:41:03 51°13.848 2°52.557 10.6 318 11.6 101210 46
2012-04-27 08:41:08 51°13.844 2°52.548 9.4 -999 11.6 101210 46
2012-04-27 08:41:13 51°13.84 2°52.54 9.9 323 11.6 101220 45
2012-04-27 08:41:17 51°13.836 2°52.534 11.9 329 11.6 101220 45
2012-04-27 08:41:23 51°13.83 2°52.527 9 334 11.5 101210 45
2012-04-27 08:41:28 51°13.824 2°52.521 8.3 280 11.5 101210 45
2012-04-27 08:41:33 51°13.819 2°52.518 9.1 340 11.5 101210 45
2012-04-27 08:41:38 51°13.813 2°52.515 10.3 278 11.5 101210 45
2012-04-27 08:41:43 51°13.808 2°52.513 10.2 342 11.5 101220 45
2012-04-27 08:41:48 51°13.803 2°52.511 10.6 277 11.5 101220 45
2012-04-27 08:41:53 51°13.798 2°52.511 11.6 346 11.5 101210 46
2012-04-27 08:41:57 51°13.794 2°52.511 12.7 282 11.5 101210 46
2012-04-27 08:42:03 51°13.789 2°52.512 10.9 351 11.5 101200 46
2012-04-27 08:42:08 51°13.785 2°52.514 9 352 11.5 101200 46
2012-04-27 08:42:13 51°13.781 2°52.516 10.8 359 11.5 101210 45
2012-04-27 08:42:17 51°13.777 2°52.518 11.5 357 11.5 101210 45
2012-04-27 08:42:23 51°13.773 2°52.521 9 359 11.5 101200 46
2012-04-27 08:42:28 51°13.769 2°52.524 9.6 359 11.5 101200 46
2012-04-27 08:42:33 51°13.766 2°52.527 8.6 2 11.5 101190 45
2012-04-27 08:42:37 51°13.763 2°52.528 8.3 3 11.5 101190 45
2012-04-27 08:42:43 51°13.759 2°52.532 8.2 6 11.5 101200 45
2012-04-27 08:42:48 51°13.756 2°52.534 9.7 3 11.5 101200 45
2012-04-27 08:42:53 51°13.753 2°52.537 7.7 2 11.4 101210 44
2012-04-27 08:42:57 51°13.75 2°52.539 8 3 11.4 101210 44
2012-04-27 08:43:02 51°13.748 2°52.541 7.2 5 11.4 101200 45
2012-04-27 08:43:08 51°13.744 2°52.544 8.5 -999 11.4 101200 45
2012-04-27 08:43:13 51°13.742 2°52.546 9.8 4 11.4 101210 46
2012-04-27 08:43:18 51°13.739 2°52.548 7.9 4 11.4 101210 46
2012-04-27 08:43:23 51°13.737 2°52.55 8 7 11.4 101200 45
2012-04-27 08:43:28 51°13.734 2°52.552 8.5 7 11.4 101200 45
2012-04-27 08:43:33 51°13.732 2°52.554 7.8 7 11.4 101210 45
2012-04-27 08:43:37 51°13.731 2°52.555 9.3 7 11.4 101210 45
2012-04-27 08:43:43 51°13.728 2°52.557 8.9 5 11.4 101210 46
2012-04-27 08:43:48 51°13.726 2°52.559 7.8 5 11.4 101210 46
2012-04-27 08:43:53 51°13.725 2°52.56 9.1 8 11.4 101200 46
2012-04-27 08:43:57 51°13.723 2°52.562 8.7 4 11.4 101200 46
2012-04-27 08:44:03 51°13.721 2°52.563 7.8 5 11.4 101210 45
2012-04-27 08:44:08 51°13.72 2°52.565 7.4 -999 11.4 101210 45
2012-04-27 08:44:13 51°13.718 2°52.566 10.5 7 11.4 101210 46
2012-04-27 08:44:17 51°13.717 2°52.567 8.5 8 11.4 101210 46
2012-04-27 08:44:23 51°13.716 2°52.569 7.8 6 11.4 101210 44
2012-04-27 08:44:28 51°13.714 2°52.57 7.4 6 11.4 101210 44
2012-04-27 08:44:33 51°13.713 2°52.571 8.3 7 11.4 101210 46
2012-04-27 08:44:37 51°13.712 2°52.572 8.3 8 11.4 101210 46
2012-04-27 08:44:42 51°13.711 2°52.573 8.5 8 11.4 101210 45
2012-04-27 08:44:48 51°13.709 2°52.574 9 9 11.4 101210 45
2012-04-27 08:44:53 51°13.708 2°52.575 9.2 9 11.3 101210 45
2012-04-27 08:44:58 51°13.707 2°52.576 7.9 9 11.3 101210 45
2012-04-27 08:45:02 51°13.707 2°52.577 7 7 11.3 101220 45
2012-04-27 08:45:08 51°13.705 2°52.577 7.9 8 11.3 101220 45
2012-04-27 08:45:13 51°13.704 2°52.578 7.3 7 11.3 101220 45
2012-04-27 08:45:17 51°13.704 2°52.578 7.3 8 11.3 101220 45
2012-04-27 08:45:23 51°13.703 2°52.579 7.1 7 11.3 101210 45
2012-04-27 08:45:28 51°13.701 2°52.58 7.9 11 11.3 101210 45
2012-04-27 08:45:33 51°13.701 2°52.58 8.3 10 11.4 101220 46
2012-04-27 08:45:37 51°13.7 2°52.581 7.9 11 11.4 101220 46
2012-04-27 08:45:43 51°13.699 2°52.581 8.1 11 11.4 101220 46
2012-04-27 08:45:48 51°13.698 2°52.581 8.2 14 11.4 101220 46
2012-04-27 08:45:53 51°13.697 2°52.582 7.9 14 11.4 101220 46
2012-04-27 08:45:58 51°13.696 2°52.582 8.1 14 11.4 101220 46
2012-04-27 08:46:03 51°13.696 2°52.582 8.5 13 11.4 101220 45
2012-04-27 08:46:08 51°13.695 2°52.583 8.6 13 11.4 101220 45
2012-04-27 08:46:13 51°13.694 2°52.583 7.2 12 11.3 101220 46
2012-04-27 08:46:18 51°13.694 2°52.583 8.4 7 11.3 101220 46
2012-04-27 08:46:23 51°13.693 2°52.583 6.8 3 11.3 101220 45
2012-04-27 08:46:28 51°13.693 2°52.583 9.7 6 11.3 101220 45
2012-04-27 08:46:33 51°13.692 2°52.584 7.2 7 11.3 101220 46
2012-04-27 08:46:37 51°13.692 2°52.584 8.5 8 11.3 101220 46
2012-04-27 08:46:43 51°13.691 2°52.584 10.2 8 11.4 101220 46
2012-04-27 08:46:48 51°13.691 2°52.584 9.7 9 11.4 101220 46
2012-04-27 08:46:53 51°13.69 2°52.584 9.8 9 11.4 101220 46
2012-04-27 08:46:57 51°13.69 2°52.584 10.6 10 11.4 101220 46
2012-04-27 08:47:03 51°13.69 2°52.584 10.4 10 11.3 101210 45
2012-04-27 08:47:08 51°13.689 2°52.585 9.3 9 11.3 101210 45
2012-04-27 08:47:13 51°13.689 2°52.585 9.5 9 11.3 101210 46
2012-04-27 08:47:18 51°13.689 2°52.585 8.8 8 11.3 101210 46
2012-04-27 08:47:22 51°13.689 2°52.585 10 13 11.3 101220 46
2012-04-27 08:47:28 51°13.689 2°52.585 9.3 12 11.3 101220 46
2012-04-27 08:47:33 51°13.688 2°52.585 9.2 13 11.3 101210 45
2012-04-27 08:47:38 51°13.688 2°52.586 8.8 12 11.3 101210 45
2012-04-27 08:47:43 51°13.688 2°52.585 8.3 13 11.3 101210 46
2012-04-27 08:47:48 51°13.688 2°52.586 9 14 11.3 101210 46
2012-04-27 08:47:53 51°13.687 2°52.585 8.2 14 11.3 101210 46
2012-04-27 08:47:57 51°13.687 2°52.585 8.2 15 11.3 101210 46
2012-04-27 08:48:03 51°13.686 2°52.585 8.1 15 11.4 101220 45
2012-04-27 08:48:08 51°13.686 2°52.585 8 13 11.4 101220 45
2012-04-27 08:48:13 51°13.686 2°52.585 10.4 16 11.4 101220 46
2012-04-27 08:48:17 51°13.686 2°52.585 8.3 17 11.4 101220 46
2012-04-27 08:48:23 51°13.686 2°52.584 9.3 16 11.4 101220 45
2012-04-27 08:48:28 51°13.685 2°52.584 9.5 14 11.4 101220 45
2012-04-27 08:48:33 51°13.685 2°52.584 10 16 11.4 101220 46
2012-04-27 08:48:37 51°13.685 2°52.584 9.5 15 11.4 101220 46
2012-04-27 08:48:43 51°13.684 2°52.583 8.5 18 11.4 101220 46
2012-04-27 08:48:48 51°13.684 2°52.583 10 15 11.4 101220 46
2012-04-27 08:48:53 51°13.684 2°52.583 8.4 19 11.4 101220 46
2012-04-27 08:48:58 51°13.684 2°52.583 8.5 20 11.4 101220 46
2012-04-27 08:49:03 51°13.684 2°52.582 9.1 17 11.4 101220 46
2012-04-27 08:49:08 51°13.684 2°52.582 9.3 15 11.4 101220 46
2012-04-27 08:49:13 51°13.684 2°52.582 8 15 11.4 101210 47
2012-04-27 08:49:17 51°13.684 2°52.581 7.9 17 11.4 101210 47
2012-04-27 08:49:23 51°13.684 2°52.581 8.4 14 11.4 101220 46
2012-04-27 08:49:28 51°13.683 2°52.581 11 13 11.4 101220 46
2012-04-27 08:49:33 51°13.683 2°52.581 10.8 13 11.4 101210 46
2012-04-27 08:49:37 51°13.683 2°52.58 9 13 11.4 101210 46
2012-04-27 08:49:43 51°13.683 2°52.58 9 13 11.4 101210 45
2012-04-27 08:49:48 51°13.683 2°52.58 7.9 17 11.4 101210 45
2012-04-27 08:49:53 51°13.683 2°52.58 9.3 18 11.4 101220 45
2012-04-27 08:49:57 51°13.683 2°52.579 9 16 11.4 101220 45
2012-04-27 08:50:03 51°13.683 2°52.579 7.6 16 11.4 101220 46
2012-04-27 08:50:08 51°13.683 2°52.579 8.3 19 11.4 101220 46
2012-04-27 08:50:13 51°13.683 2°52.578 9 18 11.4 101220 46
2012-04-27 08:50:18 51°13.683 2°52.578 7.6 18 11.4 101220 46
2012-04-27 08:50:23 51°13.683 2°52.578 8 18 11.4 101220 46
2012-04-27 08:50:28 51°13.683 2°52.577 8.3 17 11.4 101220 46
2012-04-27 08:50:33 51°13.683 2°52.577 8.3 18 11.4 101220 45
2012-04-27 08:50:38 51°13.683 2°52.577 7.8 19 11.4 101220 45
2012-04-27 08:50:44 51°13.684 2°52.576 8.2 19 11.4 101220 46
2012-04-27 08:50:49 51°13.684 2°52.576 8.4 19 11.4 101220 46
2012-04-27 08:50:54 51°13.684 2°52.575 7.4 18 11.4 101220 45
2012-04-27 08:50:59 51°13.683 2°52.575 7.2 19 11.4 101220 45
2012-04-27 08:51:04 51°13.684 2°52.574 7 19 11.4 101220 45
2012-04-27 08:51:09 51°13.684 2°52.574 7.4 20 11.4 101220 45
2012-04-27 08:51:13 51°13.684 2°52.574 7.9 21 11.4 101220 46
2012-04-27 08:51:18 51°13.684 2°52.573 7.6 22 11.4 101220 46
2012-04-27 08:51:23 51°13.684 2°52.573 8.4 21 11.4 101220 46
2012-04-27 08:51:28 51°13.684 2°52.572 7.6 18 11.4 101220 46
2012-04-27 08:51:33 51°13.684 2°52.572 7.4 21 11.4 101230 46
2012-04-27 08:51:37 51°13.684 2°52.571 7.5 25 11.4 101230 46
2012-04-27 08:51:43 51°13.684 2°52.571 7.8 21 11.4 101230 47
2012-04-27 08:51:48 51°13.684 2°52.57 8 20 11.4 101230 47
2012-04-27 08:51:53 51°13.684 2°52.569 8.2 20 11.4 101230 47
2012-04-27 08:51:58 51°13.684 2°52.569 8.5 19 11.4 101230 47
2012-04-27 08:52:02 51°13.684 2°52.569 7.7 20 11.4 101230 47
2012-04-27 08:52:08 51°13.684 2°52.568 7.6 20 11.4 101230 47
2012-04-27 08:52:13 51°13.684 2°52.567 8.3 20 11.4 101230 45
2012-04-27 08:52:17 51°13.684 2°52.567 7.2 19 11.4 101230 45
2012-04-27 08:52:23 51°13.684 2°52.566 7.7 16 11.4 101230 44
2012-04-27 08:52:28 51°13.684 2°52.566 7.1 18 11.4 101230 44
2012-04-27 08:52:33 51°13.684 2°52.565 6.4 17 11.4 101230 47
2012-04-27 08:52:38 51°13.684 2°52.565 6.6 21 11.4 101230 47
2012-04-27 08:52:43 51°13.684 2°52.564 8.2 19 11.4 101230 47
2012-04-27 08:52:48 51°13.684 2°52.563 8 18 11.4 101230 47
2012-04-27 08:52:53 51°13.684 2°52.563 8.4 18 11.4 101230 47
2012-04-27 08:52:58 51°13.684 2°52.562 8.5 18 11.4 101230 47
2012-04-27 08:53:03 51°13.684 2°52.562 8.9 17 11.5 101240 47
2012-04-27 08:53:08 51°13.684 2°52.561 7.8 18 11.5 101240 47
2012-04-27 08:53:13 51°13.684 2°52.56 7.9 18 11.5 101230 47
2012-04-27 08:53:17 51°13.684 2°52.56 8.2 18 11.5 101230 47
2012-04-27 08:53:23 51°13.684 2°52.559 7.7 21 11.5 101230 45
2012-04-27 08:53:28 51°13.685 2°52.559 8 18 11.5 101230 45
2012-04-27 08:53:33 51°13.685 2°52.558 8.5 20 11.5 101230 46
2012-04-27 08:53:37 51°13.685 2°52.558 7.6 27 11.5 101230 46
2012-04-27 08:53:43 51°13.685 2°52.557 7.4 31 11.5 101230 46
2012-04-27 08:53:48 51°13.685 2°52.556 9.1 24 11.5 101230 46
2012-04-27 08:53:53 51°13.686 2°52.556 7.2 22 11.5 101230 46
2012-04-27 08:53:58 51°13.686 2°52.555 8.4 25 11.5 101230 46
2012-04-27 08:54:02 51°13.686 2°52.554 8.6 25 11.5 101230 45
2012-04-27 08:54:08 51°13.686 2°52.554 8.2 25 11.5 101230 45
2012-04-27 08:54:13 51°13.686 2°52.553 8.4 25 11.5 101230 46
2012-04-27 08:54:17 51°13.686 2°52.552 8.6 24 11.5 101230 46
2012-04-27 08:54:23 51°13.686 2°52.552 8.8 23 11.5 101230 45
2012-04-27 08:54:28 51°13.686 2°52.551 8.2 23 11.5 101230 45
2012-04-27 08:54:33 51°13.686 2°52.55 7.4 23 11.4 101230 45
2012-04-27 08:54:38 51°13.687 2°52.55 6.7 21 11.4 101230 45
2012-04-27 08:54:43 51°13.687 2°52.549 6.9 24 11.4 101240 45
2012-04-27 08:54:48 51°13.687 2°52.548 7.1 26 11.4 101240 45
2012-04-27 08:54:53 51°13.687 2°52.548 7.4 24 11.4 101240 45
2012-04-27 08:54:58 51°13.687 2°52.547 8.1 24 11.4 101240 45
2012-04-27 08:55:03 51°13.687 2°52.546 6.8 24 11.4 101240 44
2012-04-27 08:55:08 51°13.687 2°52.546 7.3 22 11.4 101240 44
2012-04-27 08:55:13 51°13.687 2°52.545 7.6 21 11.4 101240 45
2012-04-27 08:55:17 51°13.687 2°52.544 8.2 20 11.4 101240 45
2012-04-27 08:55:23 51°13.687 2°52.544 6.7 18 11.4 101240 45
2012-04-27 08:55:28 51°13.687 2°52.543 7.2 18 11.4 101240 45
2012-04-27 08:55:33 51°13.687 2°52.542 7.6 32 11.4 101240 45
2012-04-27 08:55:37 51°13.687 2°52.542 7.8 24 11.4 101240 45
2012-04-27 08:55:43 51°13.688 2°52.541 7.7 25 11.4 101240 45
2012-04-27 08:55:48 51°13.688 2°52.541 7.4 23 11.4 101240 45
2012-04-27 08:55:53 51°13.688 2°52.54 8.5 24 11.4 101230 46
2012-04-27 08:55:57 51°13.688 2°52.54 9.4 22 11.4 101230 46
2012-04-27 08:56:03 51°13.688 2°52.539 8.8 22 11.5 101230 45
2012-04-27 08:56:08 51°13.688 2°52.539 9.1 21 11.5 101230 45
2012-04-27 08:56:13 51°13.689 2°52.538 8.3 20 11.5 101240 46
2012-04-27 08:56:17 51°13.689 2°52.538 9.1 24 11.5 101240 46
2012-04-27 08:56:22 51°13.689 2°52.537 8 22 11.5 101240 45
2012-04-27 08:56:28 51°13.689 2°52.536 7.9 21 11.5 101240 45
2012-04-27 08:56:33 51°13.689 2°52.536 8.5 23 11.5 101240 45
2012-04-27 08:56:37 51°13.689 2°52.535 8.4 22 11.5 101240 45
2012-04-27 08:56:43 51°13.689 2°52.534 8.6 22 11.5 101240 46
2012-04-27 08:56:48 51°13.689 2°52.534 8 23 11.5 101240 46
2012-04-27 08:56:53 51°13.689 2°52.533 8 22 11.5 101240 45
2012-04-27 08:56:58 51°13.689 2°52.533 8.5 22 11.5 101240 45
2012-04-27 08:57:03 51°13.689 2°52.532 9.3 23 11.5 101240 46
2012-04-27 08:57:08 51°13.689 2°52.532 8.9 22 11.5 101240 46
2012-04-27 08:57:13 51°13.689 2°52.531 8.5 20 11.5 101240 45
2012-04-27 08:57:18 51°13.689 2°52.53 8.1 22 11.5 101240 45
2012-04-27 08:57:23 51°13.689 2°52.53 7.5 19 11.5 101240 45
2012-04-27 08:57:28 51°13.69 2°52.529 7.8 20 11.5 101240 45
2012-04-27 08:57:33 51°13.69 2°52.528 8 22 11.5 101240 46
2012-04-27 08:57:37 51°13.69 2°52.528 8 21 11.5 101240 46
2012-04-27 08:57:43 51°13.69 2°52.527 7.6 23 11.5 101240 45
2012-04-27 08:57:48 51°13.69 2°52.526 6.8 24 11.5 101240 45
2012-04-27 08:57:53 51°13.69 2°52.526 6.3 29 11.5 101250 45
2012-04-27 08:57:57 51°13.69 2°52.525 7.7 27 11.5 101250 45
2012-04-27 08:58:03 51°13.69 2°52.524 7.3 28 11.6 101240 45
2012-04-27 08:58:08 51°13.69 2°52.523 7.1 25 11.6 101240 45
2012-04-27 08:58:13 51°13.69 2°52.522 7 25 11.6 101240 46
2012-04-27 08:58:18 51°13.69 2°52.522 7.4 27 11.6 101240 46
2012-04-27 08:58:22 51°13.69 2°52.521 7.3 26 11.6 101240 45
2012-04-27 08:58:28 51°13.69 2°52.52 6.6 25 11.6 101240 45
2012-04-27 08:58:33 51°13.69 2°52.519 6.9 28 11.6 101250 46
2012-04-27 08:58:37 51°13.691 2°52.519 7.6 29 11.6 101250 46
2012-04-27 08:58:43 51°13.691 2°52.518 7.2 29 11.6 101240 45
2012-04-27 08:58:48 51°13.691 2°52.517 7.1 29 11.6 101240 45
2012-04-27 08:58:53 51°13.691 2°52.516 7.7 28 11.6 101240 46
2012-04-27 08:58:58 51°13.691 2°52.516 7.8 27 11.6 101240 46
2012-04-27 08:59:03 51°13.691 2°52.515 6.1 22 11.7 101240 46
2012-04-27 08:59:08 51°13.691 2°52.514 6.3 25 11.7 101240 46
2012-04-27 08:59:13 51°13.691 2°52.513 7.5 26 11.6 101250 46
2012-04-27 08:59:18 51°13.691 2°52.513 7.4 25 11.6 101250 46
2012-04-27 08:59:23 51°13.691 2°52.512 6.8 25 11.6 101240 46
2012-04-27 08:59:28 51°13.691 2°52.511 6.9 28 11.6 101240 46
2012-04-27 08:59:33 51°13.691 2°52.511 7.2 30 11.7 101240 45
2012-04-27 08:59:38 51°13.691 2°52.51 8.8 27 11.7 101240 45
2012-04-27 08:59:43 51°13.691 2°52.509 9.2 26 11.7 101240 46
2012-04-27 08:59:48 51°13.691 2°52.509 7.9 27 11.7 101240 46
2012-04-27 08:59:53 51°13.691 2°52.508 9.9 24 11.7 101240 46
2012-04-27 08:59:57 51°13.691 2°52.508 8.4 20 11.7 101240 46
2012-04-27 09:00:03 51°13.691 2°52.507 8.7 20 11.7 101240 46
2012-04-27 09:00:08 51°13.691 2°52.506 8 22 11.7 101240 46
2012-04-27 09:00:13 51°13.691 2°52.506 7.9 22 11.7 101240 46
2012-04-27 09:00:18 51°13.691 2°52.505 7.9 23 11.7 101240 46
2012-04-27 09:00:23 51°13.691 2°52.505 7.7 27 11.7 101240 44
2012-04-27 09:00:28 51°13.691 2°52.504 8.1 23 11.7 101240 44
2012-04-27 09:00:33 51°13.691 2°52.504 9.3 26 11.7 101230 46
2012-04-27 09:00:37 51°13.692 2°52.503 9.7 22 11.7 101230 46
2012-04-27 09:00:43 51°13.692 2°52.503 8.8 23 11.7 101240 45
2012-04-27 09:00:48 51°13.692 2°52.502 8.1 20 11.7 101240 45
2012-04-27 09:00:53 51°13.692 2°52.502 7.7 19 11.7 101230 45
2012-04-27 09:00:58 51°13.692 2°52.501 8.3 17 11.7 101230 45
2012-04-27 09:01:02 51°13.692 2°52.501 7.4 17 11.7 101240 45
2012-04-27 09:01:08 51°13.692 2°52.5 8.1 17 11.7 101240 45
2012-04-27 09:01:13 51°13.692 2°52.5 7.7 15 11.7 101240 45
2012-04-27 09:01:17 51°13.692 2°52.5 7.4 15 11.7 101240 45
2012-04-27 09:01:23 51°13.692 2°52.499 7.4 18 11.7 101230 46
2012-04-27 09:01:28 51°13.692 2°52.498 7.6 18 11.7 101230 46
2012-04-27 09:01:33 51°13.692 2°52.498 7.6 20 11.7 101240 46
2012-04-27 09:01:38 51°13.692 2°52.497 7.6 19 11.7 101240 46
2012-04-27 09:01:43 51°13.691 2°52.497 7.8 21 11.7 101240 46
2012-04-27 09:01:48 51°13.691 2°52.496 8.4 19 11.7 101240 46
2012-04-27 09:01:53 51°13.691 2°52.495 8.3 23 11.7 101240 45
2012-04-27 09:01:58 51°13.691 2°52.495 8.1 21 11.7 101240 45
2012-04-27 09:02:03 51°13.691 2°52.494 7.3 22 11.6 101240 45
2012-04-27 09:02:08 51°13.691 2°52.494 7.2 24 11.6 101240 45
2012-04-27 09:02:13 51°13.691 2°52.493 6.6 20 11.6 101240 45
2012-04-27 09:02:17 51°13.691 2°52.492 7 20 11.6 101240 45
2012-04-27 09:02:23 51°13.691 2°52.492 7.6 25 11.6 101240 46
2012-04-27 09:02:28 51°13.691 2°52.491 7.7 25 11.6 101240 46
2012-04-27 09:02:33 51°13.691 2°52.49 7.9 25 11.6 101230 45
2012-04-27 09:02:37 51°13.691 2°52.49 9 23 11.6 101230 45
2012-04-27 09:02:43 51°13.691 2°52.489 9.5 24 11.6 101240 45
2012-04-27 09:02:48 51°13.691 2°52.489 8.8 20 11.6 101240 45
2012-04-27 09:02:53 51°13.691 2°52.488 8.6 19 11.6 101240 46
2012-04-27 09:02:57 51°13.691 2°52.488 9.3 21 11.6 101240 46
2012-04-27 09:03:03 51°13.691 2°52.487 8.4 24 11.6 101240 45
2012-04-27 09:03:08 51°13.691 2°52.487 8.4 22 11.6 101240 45
2012-04-27 09:03:13 51°13.691 2°52.486 8 23 11.6 101240 46
2012-04-27 09:03:18 51°13.691 2°52.486 7.2 21 11.6 101240 46
2012-04-27 09:03:22 51°13.691 2°52.485 7 21 11.6 101240 46
2012-04-27 09:03:28 51°13.691 2°52.485 8.4 22 11.6 101240 46
2012-04-27 09:03:33 51°13.691 2°52.484 7.8 19 11.6 101230 46
2012-04-27 09:03:38 51°13.691 2°52.483 8.9 17 11.6 101230 46
2012-04-27 09:03:43 51°13.69 2°52.483 7.9 17 11.6 101240 46
2012-04-27 09:03:48 51°13.69 2°52.482 7.4 21 11.6 101240 46
2012-04-27 09:03:53 51°13.69 2°52.482 6.9 22 11.6 101240 46
2012-04-27 09:03:58 51°13.69 2°52.481 6.8 20 11.6 101240 46
2012-04-27 09:04:03 51°13.69 2°52.48 7.4 25 11.7 101240 46
2012-04-27 09:04:08 51°13.69 2°52.479 7.2 24 11.7 101240 46
2012-04-27 09:04:13 51°13.69 2°52.479 7.8 21 11.7 101240 47
2012-04-27 09:04:17 51°13.69 2°52.478 8.2 21 11.7 101240 47
2012-04-27 09:04:23 51°13.69 2°52.477 7.8 20 11.7 101240 45
2012-04-27 09:04:28 51°13.689 2°52.477 8.3 23 11.7 101240 45
2012-04-27 09:04:33 51°13.689 2°52.476 7.3 19 11.7 101240 45
2012-04-27 09:04:37 51°13.689 2°52.476 6.6 18 11.7 101240 45
2012-04-27 09:04:43 51°13.689 2°52.475 7.1 20 11.7 101250 45
2012-04-27 09:04:48 51°13.689 2°52.475 6.8 17 11.7 101250 45
2012-04-27 09:04:53 51°13.689 2°52.474 7.4 19 11.7 101240 45
2012-04-27 09:04:58 51°13.688 2°52.474 7.1 17 11.7 101240 45
2012-04-27 09:05:02 51°13.688 2°52.474 7.2 20 11.7 101250 47
2012-04-27 09:05:08 51°13.687 2°52.474 7.2 19 11.7 101250 47
2012-04-27 09:05:13 51°13.687 2°52.474 7.7 16 11.7 101250 45
2012-04-27 09:05:17 51°13.686 2°52.474 7.5 16 11.7 101250 45
2012-04-27 09:05:23 51°13.685 2°52.475 7.5 15 11.7 101250 47
2012-04-27 09:05:28 51°13.685 2°52.476 7.2 15 11.7 101250 47
2012-04-27 09:05:33 51°13.684 2°52.476 8.6 11 11.6 101250 46
2012-04-27 09:05:38 51°13.683 2°52.478 8.8 13 11.6 101250 46
2012-04-27 09:05:43 51°13.681 2°52.479 8.4 15 11.6 101240 45
2012-04-27 09:05:48 51°13.68 2°52.48 8.9 14 11.6 101240 45
2012-04-27 09:05:53 51°13.679 2°52.481 8.9 15 11.6 101240 45
2012-04-27 09:05:58 51°13.677 2°52.483 10 11 11.6 101240 45
2012-04-27 09:06:03 51°13.676 2°52.485 8.5 6 11.6 101240 45
2012-04-27 09:06:08 51°13.674 2°52.486 6.5 7 11.6 101240 45
2012-04-27 09:06:13 51°13.672 2°52.488 7.3 3 11.6 101240 46
2012-04-27 09:06:17 51°13.671 2°52.49 5.7 7 11.6 101240 46
2012-04-27 09:06:23 51°13.669 2°52.492 6.8 10 11.6 101240 46
2012-04-27 09:06:28 51°13.667 2°52.494 6.1 1 11.6 101240 46
2012-04-27 09:06:33 51°13.665 2°52.496 6.6 6 11.7 101240 45
2012-04-27 09:06:38 51°13.663 2°52.499 7.4 7 11.7 101240 45
2012-04-27 09:06:43 51°13.662 2°52.501 5.5 4 11.7 101250 46
2012-04-27 09:06:48 51°13.659 2°52.503 7.8 7 11.7 101250 46
2012-04-27 09:06:53 51°13.657 2°52.506 8 8 11.7 101240 45
2012-04-27 09:06:58 51°13.655 2°52.508 9 7 11.7 101240 45
2012-04-27 09:07:03 51°13.653 2°52.511 7.7 9 11.7 101240 46
2012-04-27 09:07:08 51°13.651 2°52.513 8.1 8 11.7 101240 46
2012-04-27 09:07:13 51°13.649 2°52.516 9.5 13 11.7 101240 46
2012-04-27 09:07:18 51°13.647 2°52.519 8.7 12 11.7 101240 46
2012-04-27 09:07:23 51°13.644 2°52.523 9.1 20 11.7 101240 46
2012-04-27 09:07:28 51°13.643 2°52.528 9 17 11.7 101240 46
2012-04-27 09:07:33 51°13.641 2°52.533 8.5 22 11.7 101240 45
2012-04-27 09:07:39 51°13.64 2°52.541 7.8 24 11.7 101240 45
2012-04-27 09:07:44 51°13.64 2°52.547 7.4 30 11.7 101240 46
2012-04-27 09:07:49 51°13.64 2°52.553 7.3 33 11.7 101240 46
2012-04-27 09:07:53 51°13.64 2°52.557 7.6 35 11.7 101240 46
2012-04-27 09:07:58 51°13.641 2°52.562 7.4 36 11.7 101240 46
2012-04-27 09:08:03 51°13.641 2°52.567 7.2 33 11.7 101240 45
2012-04-27 09:08:08 51°13.642 2°52.572 7.1 42 11.7 101240 45
2012-04-27 09:08:13 51°13.643 2°52.577 6.8 36 11.7 101250 45
2012-04-27 09:08:17 51°13.643 2°52.581 6.4 34 11.7 101250 45
2012-04-27 09:08:23 51°13.644 2°52.586 6.3 32 11.7 101250 44
2012-04-27 09:08:28 51°13.644 2°52.591 7.2 34 11.7 101250 44
2012-04-27 09:08:33 51°13.644 2°52.596 7.1 31 11.7 101250 46
2012-04-27 09:08:38 51°13.645 2°52.601 6.7 31 11.7 101250 46
2012-04-27 09:08:43 51°13.645 2°52.605 7 30 11.7 101250 45
2012-04-27 09:08:48 51°13.645 2°52.61 6.3 30 11.7 101250 45
2012-04-27 09:08:53 51°13.645 2°52.614 7.2 32 11.7 101250 45
2012-04-27 09:08:58 51°13.645 2°52.619 7.7 32 11.7 101250 45
2012-04-27 09:09:03 51°13.645 2°52.624 7.1 37 11.7 101250 45
2012-04-27 09:09:08 51°13.646 2°52.628 6.3 36 11.7 101250 45
2012-04-27 09:09:13 51°13.647 2°52.633 6.9 39 11.7 101250 46
2012-04-27 09:09:17 51°13.648 2°52.637 6.3 42 11.7 101250 46
2012-04-27 09:09:23 51°13.65 2°52.643 6.9 25 11.7 101250 46
2012-04-27 09:09:28 51°13.653 2°52.648 6.7 74 11.7 101250 46
2012-04-27 09:09:33 51°13.656 2°52.652 4 27 11.7 101250 45
2012-04-27 09:09:37 51°13.659 2°52.654 3.2 78 11.7 101250 45
2012-04-27 09:09:43 51°13.664 2°52.657 3.9 20 11.7 101260 45
2012-04-27 09:09:48 51°13.669 2°52.659 5.1 77 11.7 101260 45
2012-04-27 09:09:53 51°13.674 2°52.659 6.2 25 11.7 101260 46
2012-04-27 09:09:57 51°13.677 2°52.659 5.8 74 11.7 101260 46
2012-04-27 09:10:03 51°13.683 2°52.657 6 27 11.8 101260 45
2012-04-27 09:10:08 51°13.688 2°52.655 6.5 75 11.8 101260 45
2012-04-27 09:10:13 51°13.693 2°52.653 5.9 19 11.7 101260 44
2012-04-27 09:10:17 51°13.696 2°52.65 6.8 82 11.7 101260 44
2012-04-27 09:10:23 51°13.702 2°52.647 6.4 27 11.7 101260 45
2012-04-27 09:10:28 51°13.707 2°52.644 6.1 80 11.7 101260 45
2012-04-27 09:10:33 51°13.711 2°52.641 7.3 24 11.7 101270 44
2012-04-27 09:10:37 51°13.715 2°52.638 7.9 76 11.7 101270 44
2012-04-27 09:10:43 51°13.72 2°52.634 6.3 269 11.7 101270 46
2012-04-27 09:10:48 51°13.724 2°52.63 6.1 279 11.7 101270 46
2012-04-27 09:10:53 51°13.728 2°52.627 6.5 29 11.8 101260 44
2012-04-27 09:10:58 51°13.732 2°52.623 6.2 281 11.8 101260 44
2012-04-27 09:11:03 51°13.736 2°52.62 6.7 270 11.8 101270 44
2012-04-27 09:11:08 51°13.74 2°52.616 5.4 280 11.8 101270 44
2012-04-27 09:11:13 51°13.744 2°52.613 8.2 270 11.8 101270 46
2012-04-27 09:11:18 51°13.748 2°52.609 7 288 11.8 101270 46
2012-04-27 09:11:23 51°13.752 2°52.605 7.5 269 11.8 101270 45
2012-04-27 09:11:28 51°13.755 2°52.601 6.6 279 11.8 101270 45
2012-04-27 09:11:33 51°13.759 2°52.597 6.6 268 11.8 101270 45
2012-04-27 09:11:37 51°13.761 2°52.594 8.3 80 11.8 101270 45
2012-04-27 09:11:43 51°13.766 2°52.589 6 268 11.9 101270 46
2012-04-27 09:11:48 51°13.769 2°52.585 6 279 11.9 101270 46
2012-04-27 09:11:53 51°13.772 2°52.581 4.7 266 11.9 101260 45
2012-04-27 09:11:57 51°13.775 2°52.578 4.3 280 11.9 101260 45
2012-04-27 09:12:03 51°13.779 2°52.572 4.8 270 11.8 101270 45
2012-04-27 09:12:08 51°13.782 2°52.568 4.5 -999 11.8 101270 45
2012-04-27 09:12:13 51°13.785 2°52.563 5 267 11.9 101260 46
2012-04-27 09:12:18 51°13.788 2°52.559 7.7 284 11.9 101260 46
2012-04-27 09:12:23 51°13.79 2°52.554 6.7 261 11.9 101260 44
2012-04-27 09:12:28 51°13.793 2°52.549 8 279 11.9 101260 44
2012-04-27 09:12:33 51°13.796 2°52.544 8.1 263 11.9 101260 46
2012-04-27 09:12:37 51°13.798 2°52.541 8.5 278 11.9 101260 46
2012-04-27 09:12:43 51°13.801 2°52.535 7 259 11.9 101260 46
2012-04-27 09:12:48 51°13.804 2°52.53 8.2 281 11.9 101260 46
2012-04-27 09:12:53 51°13.807 2°52.525 8.7 261 11.9 101260 45
2012-04-27 09:12:58 51°13.809 2°52.52 8.4 285 11.9 101260 45
2012-04-27 09:13:03 51°13.812 2°52.515 7.4 259 11.9 101250 45
2012-04-27 09:13:08 51°13.814 2°52.511 8.7 284 11.9 101250 45
2012-04-27 09:13:13 51°13.816 2°52.506 7.7 261 11.9 101250 44
2012-04-27 09:13:18 51°13.819 2°52.501 7.4 283 11.9 101250 44
2012-04-27 09:13:23 51°13.821 2°52.496 6.5 260 11.9 101250 45
2012-04-27 09:13:28 51°13.823 2°52.491 7.9 280 11.9 101250 45
2012-04-27 09:13:33 51°13.825 2°52.486 8.4 263 11.8 101250 44
2012-04-27 09:13:37 51°13.827 2°52.482 8.7 280 11.8 101250 44
2012-04-27 09:13:43 51°13.83 2°52.476 8.7 259 11.9 101250 43
2012-04-27 09:13:48 51°13.832 2°52.471 8.6 281 11.9 101250 43
2012-04-27 09:13:53 51°13.835 2°52.466 9.2 259 11.9 101250 46
2012-04-27 09:13:57 51°13.836 2°52.462 4.9 283 11.9 101250 46
2012-04-27 09:14:03 51°13.839 2°52.456 8.7 256 11.8 101250 45
2012-04-27 09:14:08 51°13.841 2°52.451 12.7 -999 11.8 101250 45
2012-04-27 09:14:13 51°13.843 2°52.446 9.6 260 11.9 101250 46
2012-04-27 09:14:18 51°13.845 2°52.441 9.9 282 11.9 101250 46
2012-04-27 09:14:22 51°13.847 2°52.437 10 257 11.9 101250 46
2012-04-27 09:14:28 51°13.849 2°52.432 10.9 280 11.9 101250 46
2012-04-27 09:14:33 51°13.851 2°52.427 10.6 257 11.8 101250 46
2012-04-27 09:14:37 51°13.852 2°52.424 9.9 279 11.8 101250 46
2012-04-27 09:14:43 51°13.854 2°52.419 10.9 259 11.8 101250 45
2012-04-27 09:14:48 51°13.856 2°52.415 11.1 283 11.8 101250 45
2012-04-27 09:14:53 51°13.857 2°52.411 10.8 259 11.8 101250 45
2012-04-27 09:14:58 51°13.858 2°52.408 10.1 284 11.8 101250 45
2012-04-27 09:15:03 51°13.859 2°52.404 8.4 264 11.8 101250 46
2012-04-27 09:15:08 51°13.86 2°52.401 5.9 284 11.8 101250 46
2012-04-27 09:15:13 51°13.862 2°52.398 5.7 264 11.8 101250 45
2012-04-27 09:15:18 51°13.863 2°52.396 6.1 284 11.8 101250 45
2012-04-27 09:15:23 51°13.863 2°52.393 5.4 267 11.8 101250 44
2012-04-27 09:15:28 51°13.864 2°52.391 6.2 280 11.8 101250 44
2012-04-27 09:15:33 51°13.865 2°52.388 6.7 266 11.8 101260 44
2012-04-27 09:15:37 51°13.866 2°52.387 7.4 279 11.8 101260 44
2012-04-27 09:15:43 51°13.866 2°52.384 6.2 266 11.8 101250 44
2012-04-27 09:15:48 51°13.867 2°52.382 7.5 286 11.8 101250 44
2012-04-27 09:15:53 51°13.867 2°52.38 7.4 265 11.8 101250 45
2012-04-27 09:15:57 51°13.868 2°52.379 6.9 285 11.8 101250 45
2012-04-27 09:16:03 51°13.868 2°52.377 9.6 264 11.9 101250 44
2012-04-27 09:16:08 51°13.869 2°52.375 8.1 -999 11.9 101250 44
2012-04-27 09:16:13 51°13.869 2°52.374 8.9 264 11.9 101250 44
2012-04-27 09:16:17 51°13.869 2°52.373 6.6 284 11.9 101250 44
2012-04-27 09:16:23 51°13.869 2°52.371 6.1 268 11.9 101250 43
2012-04-27 09:16:28 51°13.869 2°52.37 5.5 285 11.9 101250 43
2012-04-27 09:16:33 51°13.869 2°52.369 6.7 268 11.8 101250 43
2012-04-27 09:16:37 51°13.869 2°52.369 5.9 279 11.8 101250 43
2012-04-27 09:16:42 51°13.869 2°52.368 6.7 267 11.8 101250 43
2012-04-27 09:16:48 51°13.869 2°52.367 7 285 11.8 101250 43
2012-04-27 09:16:53 51°13.869 2°52.367 6.9 268 11.8 101250 43
2012-04-27 09:16:58 51°13.868 2°52.367 6.3 279 11.8 101250 43
2012-04-27 09:17:03 51°13.868 2°52.366 7.9 268 11.8 101250 45
2012-04-27 09:17:08 51°13.867 2°52.366 7 284 11.8 101250 45
2012-04-27 09:17:13 51°13.867 2°52.366 6.3 267 11.8 101250 43
2012-04-27 09:17:18 51°13.867 2°52.366 5.7 284 11.8 101250 43
2012-04-27 09:17:23 51°13.866 2°52.366 8.1 270 11.8 101250 45
2012-04-27 09:17:28 51°13.866 2°52.366 8.2 75 11.8 101250 45
2012-04-27 09:17:33 51°13.865 2°52.366 6.8 27 11.8 101250 45
2012-04-27 09:17:37 51°13.865 2°52.366 7.1 76 11.8 101250 45
2012-04-27 09:17:43 51°13.864 2°52.366 8.6 24 11.8 101250 44
2012-04-27 09:17:48 51°13.863 2°52.366 8.3 80 11.8 101250 44
2012-04-27 09:17:53 51°13.863 2°52.366 8.3 21 11.9 101260 44
2012-04-27 09:17:57 51°13.862 2°52.366 7.6 82 11.9 101260 44
2012-04-27 09:18:03 51°13.861 2°52.366 8.1 27 11.9 101260 44
2012-04-27 09:18:08 51°13.86 2°52.366 8.1 75 11.9 101260 44
2012-04-27 09:18:13 51°13.859 2°52.366 8.4 28 11.9 101260 45
2012-04-27 09:18:17 51°13.858 2°52.366 8.7 81 11.9 101260 45
2012-04-27 09:18:23 51°13.857 2°52.367 8 22 11.9 101250 46
2012-04-27 09:18:28 51°13.856 2°52.366 8.4 82 11.9 101250 46
2012-04-27 09:18:33 51°13.855 2°52.366 8.3 24 11.9 101250 45
2012-04-27 09:18:37 51°13.854 2°52.366 8.3 77 11.9 101250 45
2012-04-27 09:18:43 51°13.853 2°52.366 8.4 23 11.8 101260 45
2012-04-27 09:18:48 51°13.851 2°52.366 8.5 76 11.8 101260 45
2012-04-27 09:18:53 51°13.85 2°52.366 7.5 26 11.9 101260 44
2012-04-27 09:18:57 51°13.849 2°52.365 9.5 79 11.9 101260 44
2012-04-27 09:19:03 51°13.847 2°52.365 9.5 24 11.9 101260 43
2012-04-27 09:19:08 51°13.846 2°52.365 9.2 77 11.9 101260 43
2012-04-27 09:19:13 51°13.845 2°52.365 8.6 25 11.9 101250 44
2012-04-27 09:19:18 51°13.843 2°52.364 8.9 77 11.9 101250 44
2012-04-27 09:19:23 51°13.842 2°52.364 8.9 24 11.8 101250 45
2012-04-27 09:19:28 51°13.84 2°52.363 9.6 75 11.8 101250 45
2012-04-27 09:19:33 51°13.839 2°52.362 9.5 26 11.8 101250 44
2012-04-27 09:19:38 51°13.838 2°52.362 8.8 76 11.8 101250 44
2012-04-27 09:19:43 51°13.836 2°52.361 8.3 23 11.8 101250 43
2012-04-27 09:19:48 51°13.834 2°52.36 7.6 81 11.8 101250 43
2012-04-27 09:19:53 51°13.833 2°52.36 8 22 11.8 101260 44
2012-04-27 09:19:58 51°13.831 2°52.359 8 74 11.8 101260 44
2012-04-27 09:20:03 51°13.83 2°52.358 8.8 22 11.8 101260 44
2012-04-27 09:20:08 51°13.828 2°52.357 7.8 77 11.8 101260 44
2012-04-27 09:20:13 51°13.827 2°52.356 8.1 21 11.8 101260 45
2012-04-27 09:20:17 51°13.825 2°52.355 6.9 78 11.8 101260 45
2012-04-27 09:20:23 51°13.823 2°52.354 6.9 26 11.8 101270 44
2012-04-27 09:20:28 51°13.822 2°52.353 6.8 76 11.8 101270 44
2012-04-27 09:20:33 51°13.82 2°52.352 5.2 21 11.8 101260 43
2012-04-27 09:20:37 51°13.819 2°52.351 6.3 78 11.8 101260 43
2012-04-27 09:20:43 51°13.817 2°52.349 7.9 25 11.8 101260 44
2012-04-27 09:20:48 51°13.815 2°52.348 5.8 81 11.8 101260 44
2012-04-27 09:20:53 51°13.813 2°52.346 5.5 19 11.8 101260 45
2012-04-27 09:20:58 51°13.812 2°52.345 3.9 75 11.8 101260 45
2012-04-27 09:21:02 51°13.81 2°52.344 4.2 25 11.8 101270 44
2012-04-27 09:21:08 51°13.808 2°52.342 5.3 76 11.8 101270 44
2012-04-27 09:21:13 51°13.806 2°52.34 5 23 11.8 101260 45
2012-04-27 09:21:18 51°13.805 2°52.338 6.1 80 11.8 101260 45
2012-04-27 09:21:23 51°13.803 2°52.336 4.5 27 11.9 101260 46
2012-04-27 09:21:28 51°13.801 2°52.335 5.4 79 11.9 101260 46
2012-04-27 09:21:33 51°13.8 2°52.332 7.5 24 11.9 101270 45
2012-04-27 09:21:37 51°13.798 2°52.331 8.8 76 11.9 101270 45
2012-04-27 09:21:43 51°13.796 2°52.329 8.4 21 11.9 101270 43
2012-04-27 09:21:48 51°13.795 2°52.327 8.4 76 11.9 101270 43
2012-04-27 09:21:53 51°13.793 2°52.324 9.9 24 11.9 101270 44
2012-04-27 09:21:57 51°13.792 2°52.323 10.4 81 11.9 101270 44
2012-04-27 09:22:03 51°13.79 2°52.32 9.6 21 11.9 101270 43
2012-04-27 09:22:08 51°13.789 2°52.318 8.5 74 11.9 101270 43
2012-04-27 09:22:13 51°13.788 2°52.315 9.4 27 11.9 101260 42
2012-04-27 09:22:17 51°13.786 2°52.314 8.2 80 11.9 101260 42
2012-04-27 09:22:23 51°13.785 2°52.311 8.2 28 11.9 101270 44
2012-04-27 09:22:28 51°13.784 2°52.309 8.4 78 11.9 101270 44
2012-04-27 09:22:33 51°13.783 2°52.306 8 26 11.9 101270 43
2012-04-27 09:22:37 51°13.782 2°52.305 7.3 80 11.9 101270 43
2012-04-27 09:22:43 51°13.781 2°52.302 8.5 22 11.9 101270 43
2012-04-27 09:22:48 51°13.78 2°52.3 8.5 79 11.9 101270 43
2012-04-27 09:22:53 51°13.779 2°52.298 8.2 45 12 101270 43
2012-04-27 09:22:58 51°13.779 2°52.296 9.2 44 12 101270 43
2012-04-27 09:23:02 51°13.778 2°52.294 10 25 11.9 101270 44
2012-04-27 09:23:08 51°13.777 2°52.292 8.5 76 11.9 101270 44
2012-04-27 09:23:13 51°13.777 2°52.29 7.8 45 11.9 101280 44
2012-04-27 09:23:17 51°13.776 2°52.289 7.9 45 11.9 101280 44
2012-04-27 09:23:23 51°13.776 2°52.287 8.3 27 11.9 101270 44
2012-04-27 09:23:28 51°13.776 2°52.285 7.6 81 11.9 101270 44
2012-04-27 09:23:33 51°13.776 2°52.284 7.5 23 11.9 101270 43
2012-04-27 09:23:38 51°13.776 2°52.283 7.1 42 11.9 101270 43
2012-04-27 09:23:43 51°13.776 2°52.283 7.5 43 11.9 101270 43
2012-04-27 09:23:48 51°13.776 2°52.283 7.5 40 11.9 101270 43
2012-04-27 09:23:53 51°13.776 2°52.284 7.6 36 11.9 101270 43
2012-04-27 09:23:58 51°13.776 2°52.285 8.8 34 11.9 101270 43
2012-04-27 09:24:03 51°13.776 2°52.286 9.2 23 11.9 101260 45
2012-04-27 09:24:08 51°13.776 2°52.288 9.4 26 11.9 101260 45
2012-04-27 09:24:13 51°13.776 2°52.29 8.8 26 11.9 101270 43
2012-04-27 09:24:17 51°13.776 2°52.292 9.4 21 11.9 101270 43
2012-04-27 09:24:23 51°13.776 2°52.295 8.8 22 12 101270 42
2012-04-27 09:24:28 51°13.775 2°52.298 10.9 23 12 101270 42
2012-04-27 09:24:33 51°13.774 2°52.3 10.1 20 11.9 101270 44
2012-04-27 09:24:38 51°13.773 2°52.303 11.1 22 11.9 101270 44
2012-04-27 09:24:43 51°13.773 2°52.305 10 17 12 101260 44
2012-04-27 09:24:48 51°13.772 2°52.308 9.9 18 12 101260 44
2012-04-27 09:24:53 51°13.771 2°52.311 12 19 11.9 101270 44
2012-04-27 09:24:58 51°13.77 2°52.314 11.3 17 11.9 101270 44
2012-04-27 09:25:03 51°13.769 2°52.316 11 16 11.9 101260 44
2012-04-27 09:25:08 51°13.768 2°52.32 9.3 17 11.9 101260 44
2012-04-27 09:25:13 51°13.767 2°52.323 9 20 11.9 101270 43
2012-04-27 09:25:17 51°13.766 2°52.325 10.3 18 11.9 101270 43
2012-04-27 09:25:23 51°13.764 2°52.329 11.5 16 11.9 101280 42
2012-04-27 09:25:28 51°13.763 2°52.333 10.2 15 11.9 101280 42
2012-04-27 09:25:33 51°13.762 2°52.337 9.5 15 11.9 101260 44
2012-04-27 09:25:37 51°13.761 2°52.339 9.8 16 11.9 101260 44
2012-04-27 09:25:43 51°13.759 2°52.344 10 16 11.9 101270 44
2012-04-27 09:25:48 51°13.757 2°52.347 9.2 12 11.9 101270 44
2012-04-27 09:25:53 51°13.756 2°52.351 8.7 20 11.9 101260 44
2012-04-27 09:25:58 51°13.754 2°52.354 10.7 16 11.9 101260 44
2012-04-27 09:26:03 51°13.753 2°52.357 10.4 18 11.9 101260 43
2012-04-27 09:26:08 51°13.751 2°52.36 9.2 -999 11.9 101260 43
2012-04-27 09:26:13 51°13.75 2°52.363 10.6 14 11.9 101270 43
2012-04-27 09:26:17 51°13.749 2°52.366 10.9 15 11.9 101270 43
2012-04-27 09:26:23 51°13.747 2°52.369 9.5 12 11.9 101260 43
2012-04-27 09:26:28 51°13.746 2°52.372 10.1 12 11.9 101260 43
2012-04-27 09:26:33 51°13.744 2°52.374 9.6 10 11.9 101260 42
2012-04-27 09:26:38 51°13.743 2°52.376 9.8 9 11.9 101260 42
2012-04-27 09:26:43 51°13.742 2°52.379 8.6 10 11.9 101260 42
2012-04-27 09:26:48 51°13.74 2°52.381 7.9 8 11.9 101260 42
2012-04-27 09:26:53 51°13.739 2°52.383 8.5 8 11.9 101260 42
2012-04-27 09:26:57 51°13.738 2°52.384 8.6 9 11.9 101260 42
2012-04-27 09:27:03 51°13.736 2°52.386 9 13 11.9 101260 42
2012-04-27 09:27:08 51°13.735 2°52.388 8.6 9 11.9 101260 42
2012-04-27 09:27:13 51°13.734 2°52.389 6.7 5 11.9 101260 42
2012-04-27 09:27:17 51°13.732 2°52.39 6.1 6 11.9 101260 42
2012-04-27 09:27:23 51°13.731 2°52.392 6.7 4 11.9 101250 43
2012-04-27 09:27:28 51°13.729 2°52.393 6.3 4 11.9 101250 43
2012-04-27 09:27:33 51°13.728 2°52.394 8 4 11.9 101250 43
2012-04-27 09:27:37 51°13.727 2°52.395 6.4 5 11.9 101250 43
2012-04-27 09:27:43 51°13.725 2°52.396 8.2 5 11.9 101250 42
2012-04-27 09:27:48 51°13.724 2°52.397 8.7 1 11.9 101250 42
2012-04-27 09:27:53 51°13.722 2°52.397 7.7 4 11.9 101250 43
2012-04-27 09:27:57 51°13.722 2°52.398 8.3 8 11.9 101250 43
2012-04-27 09:28:03 51°13.72 2°52.398 5.9 6 11.9 101250 44
2012-04-27 09:28:08 51°13.719 2°52.399 6.6 6 11.9 101250 44
2012-04-27 09:28:13 51°13.718 2°52.399 7.1 7 12 101250 44
2012-04-27 09:28:17 51°13.717 2°52.399 7.3 8 12 101250 44
2012-04-27 09:28:23 51°13.716 2°52.4 7.7 9 11.9 101240 42
2012-04-27 09:28:28 51°13.715 2°52.4 8 15 11.9 101240 42
2012-04-27 09:28:33 51°13.714 2°52.4 6.7 12 12 101250 43
2012-04-27 09:28:38 51°13.713 2°52.399 6.8 11 12 101250 43
2012-04-27 09:28:43 51°13.712 2°52.4 7.6 16 12 101250 43
2012-04-27 09:28:48 51°13.711 2°52.399 7.2 14 12 101250 43
2012-04-27 09:28:53 51°13.71 2°52.399 6.4 15 12 101260 43
2012-04-27 09:28:58 51°13.709 2°52.399 6.4 15 12 101260 43
2012-04-27 09:29:03 51°13.708 2°52.399 6.5 15 12 101250 44
2012-04-27 09:29:08 51°13.707 2°52.398 6.4 8 12 101250 44
2012-04-27 09:29:13 51°13.707 2°52.398 7.7 9 12 101260 44
2012-04-27 09:29:17 51°13.706 2°52.398 7.5 7 12 101260 44
2012-04-27 09:29:23 51°13.704 2°52.398 7.3 359 12 101260 44
2012-04-27 09:29:28 51°13.703 2°52.399 6.7 3 12 101260 44
2012-04-27 09:29:33 51°13.701 2°52.4 7 3 12.1 101260 44
2012-04-27 09:29:37 51°13.699 2°52.4 6.8 1 12.1 101260 44
2012-04-27 09:29:43 51°13.696 2°52.401 6.7 1 12 101260 44
2012-04-27 09:29:48 51°13.693 2°52.402 8.2 360 12 101260 44
2012-04-27 09:29:53 51°13.69 2°52.403 9.1 354 12 101260 44
2012-04-27 09:29:58 51°13.687 2°52.404 9.9 359 12 101260 44
2012-04-27 09:30:02 51°13.684 2°52.404 9.1 353 12 101260 45
2012-04-27 09:30:08 51°13.68 2°52.404 9 -999 12 101260 45
2012-04-27 09:30:13 51°13.676 2°52.403 8.2 348 12 101250 45
2012-04-27 09:30:17 51°13.673 2°52.403 8.5 352 12 101250 45
2012-04-27 09:30:23 51°13.668 2°52.401 9.3 348 12 101250 45
2012-04-27 09:30:28 51°13.663 2°52.4 8.5 284 12 101250 45
2012-04-27 09:30:33 51°13.659 2°52.398 9.6 343 12 101250 45
2012-04-27 09:30:38 51°13.654 2°52.395 8.7 286 12 101250 45
2012-04-27 09:30:43 51°13.649 2°52.392 9.9 339 12 101250 45
2012-04-27 09:30:48 51°13.643 2°52.388 0.6 282 12 101250 45
2012-04-27 09:30:53 51°13.637 2°52.383 8.7 334 11.9 101250 44
2012-04-27 09:30:58 51°13.631 2°52.378 9.5 286 11.9 101250 44
2012-04-27 09:31:03 51°13.625 2°52.373 10.1 341 12 101250 44
2012-04-27 09:31:08 51°13.619 2°52.367 11.4 284 12 101250 44
2012-04-27 09:31:13 51°13.612 2°52.361 9.8 335 11.9 101250 45
2012-04-27 09:31:17 51°13.607 2°52.356 9 284 11.9 101250 45
2012-04-27 09:31:23 51°13.599 2°52.349 9.3 336 12 101250 44
2012-04-27 09:31:28 51°13.593 2°52.343 9.9 279 12 101250 44
2012-04-27 09:31:33 51°13.587 2°52.337 9.8 340 12 101250 44
2012-04-27 09:31:37 51°13.582 2°52.331 8.4 284 12 101250 44
2012-04-27 09:31:43 51°13.575 2°52.324 9.7 335 12 101250 44
2012-04-27 09:31:48 51°13.569 2°52.317 10.2 280 12 101250 44
2012-04-27 09:31:53 51°13.563 2°52.311 10.2 335 12 101250 44
2012-04-27 09:31:57 51°13.558 2°52.306 9.3 278 12 101250 44
2012-04-27 09:32:03 51°13.552 2°52.299 8.9 335 12 101250 45
2012-04-27 09:32:08 51°13.547 2°52.292 8.5 -999 12 101250 45
2012-04-27 09:32:13 51°13.542 2°52.286 8.7 332 12 101250 45
2012-04-27 09:32:17 51°13.538 2°52.281 8.9 278 12 101250 45
2012-04-27 09:32:22 51°13.533 2°52.275 8.3 333 12 101250 43
2012-04-27 09:32:28 51°13.528 2°52.269 8.7 280 12 101250 43
2012-04-27 09:32:33 51°13.523 2°52.263 7.8 327 12.1 101250 44
2012-04-27 09:32:37 51°13.52 2°52.258 8.6 279 12.1 101250 44
2012-04-27 09:32:43 51°13.515 2°52.252 8.3 330 12.1 101260 44
2012-04-27 09:32:48 51°13.511 2°52.246 8.4 285 12.1 101260 44
2012-04-27 09:32:53 51°13.507 2°52.241 8.2 332 12.1 101250 44
2012-04-27 09:32:58 51°13.504 2°52.236 9.2 283 12.1 101250 44
2012-04-27 09:33:03 51°13.5 2°52.231 9.5 331 12.1 101260 44
2012-04-27 09:33:08 51°13.497 2°52.226 9.2 286 12.1 101260 44
2012-04-27 09:33:13 51°13.494 2°52.221 10.9 328 12.1 101260 44
2012-04-27 09:33:18 51°13.491 2°52.216 10 278 12.1 101260 44
2012-04-27 09:33:23 51°13.488 2°52.212 10.1 325 12.1 101250 43
2012-04-27 09:33:28 51°13.485 2°52.208 7.8 286 12.1 101250 43
2012-04-27 09:33:33 51°13.482 2°52.203 9.8 323 12.1 101250 43
2012-04-27 09:33:37 51°13.48 2°52.2 10.8 285 12.1 101250 43
2012-04-27 09:33:43 51°13.477 2°52.195 8.5 325 12.1 101250 43
2012-04-27 09:33:48 51°13.475 2°52.191 8.1 284 12.1 101250 43
2012-04-27 09:33:53 51°13.472 2°52.187 7.8 326 12.1 101250 43
2012-04-27 09:33:57 51°13.47 2°52.184 8.1 282 12.1 101250 43
2012-04-27 09:34:03 51°13.468 2°52.179 9.1 320 12.1 101250 43
2012-04-27 09:34:08 51°13.466 2°52.175 8.9 -999 12.1 101250 43
2012-04-27 09:34:13 51°13.464 2°52.172 11.4 317 12.1 101250 44
2012-04-27 09:34:18 51°13.462 2°52.168 10.8 278 12.1 101250 44
2012-04-27 09:34:22 51°13.46 2°52.164 8.2 316 12.1 101250 44
2012-04-27 09:34:28 51°13.458 2°52.16 8.6 278 12.1 101250 44